QPF
0.00 0.00 0.00 0.00 0.00 0.00 0.00 0.00 0.00 0.00 0.00 0.00 0.00 0.00 0.00 0.00 0.00 0.00 0.00 0.00 0.00 0.00 0.00 0.00 0.00 0.00 0.00 0.00 0.00 0.00 0.00 0.00 0.01 0.01 0.01 0.01 0.00 0.01 0.02 0.04 0.04 0.03 0.05
0.00 0.00 0.00 0.00 0.00 0.00 0.00 0.00 0.00 0.00 0.00 0.00 0.00 0.00 0.00 0.00 0.00 0.00 0.00 0.00 0.00 0.00 0.00 0.00 0.00 0.00 0.00 0.00 0.00 0.00 0.00 0.00 0.01 0.01 0.02 0.02 0.01 0.01 0.02 0.03 0.03 0.02 0.04
0.00 0.00 0.00 0.00 0.00 0.00 0.00 0.00 0.00 0.00 0.00 0.00 0.00 0.00 0.00 0.00 0.00 0.00 0.00 0.00 0.00 0.00 0.00 0.00 0.00 0.00 0.00 0.00 0.00 0.00 0.00 0.00 0.01 0.01 0.01 0.00 0.01 0.02 0.03 0.04 0.03 0.02 0.02
0.00 0.00 0.00 0.00 0.00 0.00 0.00 0.00 0.00 0.00 0.00 0.00 0.00 0.00 0.00 0.00 0.00 0.00 0.00 0.00 0.00 0.00 0.00 0.00 0.00 0.00 0.00 0.00 0.00 0.00 0.00 0.00 0.01 0.01 0.02 0.00 0.00 0.01 0.01 0.01 0.01 0.01 0.01
0.00 0.00 0.00 0.00 0.00 0.00 0.00 0.00 0.00 0.00 0.00 0.00 0.00 0.00 0.00 0.00 0.00 0.00 0.00 0.00 0.00 0.00 0.01 0.00 0.00 0.00 0.00 0.00 0.00 0.00 0.00 0.00 0.00 0.02 0.03 0.01 0.00 0.01 0.00 0.00 0.00 0.01 0.01
0.00 0.00 0.00 0.00 0.00 0.00 0.00 0.00 0.00 0.00 0.00 0.00 0.00 0.00 0.00 0.00 0.00 0.00 0.00 0.00 0.00 0.00 0.00 0.00 0.00 0.00 0.00 0.00 0.00 0.00 0.00 0.00 0.00 0.01 0.03 0.02 0.01 0.01 0.00 0.00 0.00 0.00 0.01
0.00 0.00 0.00 0.00 0.00 0.00 0.00 0.00 0.00 0.00 0.00 0.00 0.00 0.00 0.00 0.00 0.00 0.00 0.00 0.00 0.00 0.00 0.00 0.00 0.00 0.00 0.00 0.00 0.00 0.00 0.00 0.00 0.00 0.02 0.04 0.04 0.03 0.02 0.00 0.00 0.00 0.00 0.00
0.00 0.00 0.00 0.00 0.00 0.00 0.00 0.00 0.00 0.00 0.00 0.00 0.00 0.00 0.00 0.00 0.00 0.00 0.00 0.00 0.00 0.00 0.00 0.00 0.00 0.00 0.00 0.00 0.00 0.00 0.00 0.00 0.00 0.02 0.04 0.04 0.03 0.03 0.01 0.00 0.00 0.00 0.00
0.00 0.00 0.00 0.00 0.00 0.00 0.00 0.00 0.00 0.00 0.00 0.00 0.00 0.00 0.00 0.00 0.00 0.00 0.00 0.00 0.01 0.01 0.00 0.00 0.00 0.00 0.00 0.00 0.00 0.00 0.00 0.00 0.00 0.01 0.02 0.03 0.04 0.06 0.03 0.01 0.00 0.00 0.00
0.01 0.01 0.00 0.00 0.00 0.00 0.00 0.00 0.00 0.00 0.00 0.00 0.00 0.00 0.00 0.00 0.00 0.01 0.01 0.01 0.01 0.01 0.01 0.01 0.01 0.00 0.00 0.00 0.00 0.00 0.00 0.00 0.00 0.00 0.01 0.02 0.05 0.07 0.06 0.03 0.01 0.01 0.00
0.02 0.01 0.00 0.00 0.00 0.00 0.00 0.01 0.01 0.00 0.00 0.00 0.00 0.00 0.00 0.00 0.00 0.01 0.01 0.03 0.03 0.03 0.03 0.03 0.02 0.02 0.01 0.01 0.00 0.00 0.00 0.00 0.00 0.00 0.00 0.01 0.04 0.08 0.08 0.04 0.02 0.01 0.01
0.04 0.02 0.01 0.01 0.01 0.01 0.01 0.02 0.02 0.01 0.01 0.01 0.01 0.01 0.01 0.00 0.01 0.01 0.03 0.08 0.09 0.09 0.08 0.07 0.06 0.05 0.04 0.02 0.02 0.01 0.01 0.01 0.00 0.00 0.00 0.01 0.03 0.07 0.08 0.06 0.03 0.02 0.02
0.04 0.03 0.03 0.04 0.04 0.03 0.03 0.03 0.02 0.03 0.04 0.05 0.04 0.04 0.03 0.02 0.02 0.03 0.04 0.09 0.12 0.15 0.13 0.13 0.13 0.11 0.08 0.05 0.04 0.03 0.02 0.01 0.01 0.00 0.00 0.01 0.03 0.07 0.09 0.08 0.06 0.04 0.02
0.06 0.06 0.07 0.09 0.09 0.07 0.07 0.06 0.06 0.06 0.06 0.07 0.08 0.08 0.08 0.07 0.05 0.04 0.06 0.09 0.12 0.15 0.17 0.19 0.19 0.19 0.17 0.12 0.08 0.05 0.03 0.02 0.01 0.01 0.01 0.04 0.06 0.10 0.14 0.11 0.08 0.05 0.03
0.10 0.11 0.12 0.14 0.12 0.12 0.11 0.10 0.08 0.07 0.06 0.08 0.08 0.10 0.13 0.12 0.09 0.07 0.08 0.10 0.13 0.17 0.20 0.22 0.25 0.26 0.25 0.22 0.16 0.11 0.09 0.08 0.06 0.04 0.04 0.09 0.11 0.11 0.14 0.14 0.11 0.08 0.06
0.11 0.12 0.11 0.11 0.12 0.11 0.12 0.12 0.10 0.09 0.09 0.08 0.09 0.09 0.10 0.09 0.08 0.07 0.06 0.07 0.08 0.11 0.15 0.21 0.27 0.31 0.34 0.33 0.28 0.23 0.17 0.14 0.13 0.12 0.11 0.14 0.21 0.19 0.17 0.17 0.15 0.12 0.10
0.11 0.11 0.11 0.12 0.13 0.12 0.12 0.12 0.09 0.08 0.08 0.08 0.08 0.06 0.05 0.06 0.06 0.04 0.04 0.05 0.06 0.08 0.10 0.14 0.22 0.34 0.44 0.43 0.37 0.34 0.30 0.24 0.20 0.19 0.21 0.23 0.20 0.22 0.22 0.17 0.13 0.12 0.11
0.08 0.08 0.09 0.11 0.12 0.11 0.10 0.10 0.07 0.05 0.05 0.05 0.05 0.04 0.04 0.04 0.05 0.05 0.05 0.05 0.06 0.06 0.07 0.09 0.14 0.20 0.36 0.47 0.46 0.43 0.39 0.35 0.29 0.27 0.30 0.29 0.26 0.17 0.16 0.18 0.15 0.12 0.10
0.06 0.06 0.07 0.06 0.06 0.05 0.04 0.04 0.03 0.03 0.02 0.02 0.02 0.02 0.02 0.02 0.02 0.03 0.03 0.03 0.03 0.05 0.06 0.06 0.09 0.15 0.23 0.32 0.40 0.39 0.36 0.34 0.30 0.29 0.30 0.26 0.25 0.23 0.16 0.16 0.19 0.15 0.12
0.03 0.03 0.03 0.03 0.03 0.03 0.03 0.02 0.02 0.01 0.01 0.01 0.01 0.01 0.01 0.01 0.01 0.01 0.01 0.02 0.02 0.03 0.03 0.05 0.07 0.10 0.18 0.24 0.29 0.29 0.25 0.23 0.26 0.26 0.21 0.20 0.19 0.19 0.21 0.17 0.16 0.13 0.13
0.01 0.01 0.01 0.01 0.01 0.01 0.01 0.01 0.01 0.01 0.01 0.01 0.01 0.01 0.00 0.00 0.00 0.00 0.00 0.00 0.01 0.02 0.03 0.04 0.07 0.12 0.15 0.19 0.24 0.24 0.22 0.21 0.20 0.17 0.14 0.14 0.12 0.13 0.19 0.18 0.16 0.12 0.08
0.00 0.00 0.00 0.00 0.00 0.01 0.01 0.01 0.00 0.00 0.00 0.00 0.00 0.00 0.00 0.00 0.00 0.00 0.00 0.00 0.00 0.00 0.01 0.03 0.06 0.09 0.10 0.14 0.20 0.23 0.24 0.22 0.19 0.12 0.11 0.10 0.08 0.11 0.15 0.16 0.18 0.16 0.13
0.00 0.00 0.00 0.00 0.00 0.00 0.00 0.00 0.00 0.00 0.00 0.00 0.00 0.00 0.00 0.00 0.00 0.00 0.00 0.00 0.00 0.00 0.01 0.02 0.03 0.05 0.06 0.11 0.20 0.28 0.25 0.20 0.17 0.15 0.13 0.10 0.09 0.11 0.12 0.16 0.16 0.15 0.14
0.00 0.00 0.00 0.00 0.00 0.00 0.00 0.00 0.00 0.00 0.00 0.00 0.00 0.00 0.00 0.00 0.00 0.00 0.00 0.00 0.00 0.00 0.01 0.03 0.04 0.06 0.07 0.09 0.13 0.19 0.22 0.21 0.18 0.14 0.14 0.14 0.12 0.12 0.15 0.17 0.18 0.15 0.12
0.00 0.00 0.00 0.00 0.00 0.00 0.00 0.00 0.00 0.00 0.00 0.00 0.00 0.00 0.00 0.00 0.00 0.00 0.00 0.00 0.01 0.01 0.01 0.02 0.03 0.05 0.10 0.14 0.14 0.16 0.17 0.17 0.15 0.13 0.13 0.15 0.13 0.09 0.10 0.15 0.16 0.15 0.11
0.00 0.00 0.00 0.00 0.00 0.00 0.00 0.00 0.00 0.00 0.00 0.00 0.00 0.00 0.00 0.00 0.00 0.00 0.00 0.00 0.00 0.00 0.00 0.01 0.01 0.02 0.05 0.11 0.13 0.15 0.18 0.18 0.15 0.12 0.12 0.12 0.11 0.09 0.08 0.10 0.09 0.09 0.09
MSLP
1011.83 1011.52 1011.33 1011.31 1011.47 1011.76 1012.13 1012.49 1012.80 1013.03 1013.18 1013.29 1013.41 1013.57 1013.78 1014.04 1014.33 1014.60 1014.84 1015.02 1015.15 1015.24 1015.32 1015.41 1015.53 1015.67 1015.83 1015.98 1016.10 1016.18 1016.21 1016.22 1016.21 1016.22 1016.26 1016.34 1016.46 1016.59 1016.73 1016.87 1017.00 1017.12 1017.24
1011.67 1011.43 1011.31 1011.36 1011.56 1011.88 1012.25 1012.60 1012.90 1013.12 1013.27 1013.40 1013.55 1013.74 1013.99 1014.28 1014.57 1014.84 1015.04 1015.19 1015.27 1015.33 1015.38 1015.46 1015.58 1015.74 1015.91 1016.07 1016.19 1016.27 1016.29 1016.29 1016.28 1016.29 1016.33 1016.42 1016.55 1016.70 1016.87 1017.02 1017.16 1017.29 1017.42
1011.48 1011.30 1011.25 1011.37 1011.63 1012.00 1012.39 1012.75 1013.04 1013.26 1013.41 1013.56 1013.72 1013.93 1014.18 1014.47 1014.75 1014.99 1015.16 1015.26 1015.31 1015.34 1015.38 1015.46 1015.58 1015.75 1015.93 1016.10 1016.23 1016.30 1016.33 1016.34 1016.33 1016.35 1016.41 1016.51 1016.66 1016.83 1017.00 1017.16 1017.31 1017.45 1017.59
1011.30 1011.19 1011.22 1011.41 1011.74 1012.15 1012.57 1012.94 1013.23 1013.44 1013.59 1013.73 1013.88 1014.09 1014.33 1014.59 1014.84 1015.04 1015.17 1015.24 1015.27 1015.28 1015.32 1015.41 1015.55 1015.73 1015.93 1016.10 1016.24 1016.33 1016.36 1016.38 1016.39 1016.42 1016.50 1016.62 1016.78 1016.95 1017.13 1017.30 1017.46 1017.60 1017.75
1011.20 1011.15 1011.25 1011.51 1011.90 1012.35 1012.79 1013.16 1013.44 1013.63 1013.76 1013.87 1014.01 1014.19 1014.41 1014.64 1014.85 1015.02 1015.12 1015.17 1015.18 1015.20 1015.26 1015.36 1015.52 1015.72 1015.93 1016.11 1016.26 1016.35 1016.40 1016.43 1016.46 1016.52 1016.61 1016.74 1016.90 1017.08 1017.25 1017.42 1017.58 1017.73 1017.89
1011.18 1011.20 1011.37 1011.69 1012.13 1012.60 1013.03 1013.38 1013.63 1013.78 1013.88 1013.96 1014.07 1014.23 1014.42 1014.62 1014.80 1014.94 1015.02 1015.06 1015.09 1015.12 1015.20 1015.33 1015.52 1015.73 1015.95 1016.15 1016.29 1016.39 1016.46 1016.50 1016.55 1016.62 1016.72 1016.85 1017.01 1017.17 1017.33 1017.49 1017.65 1017.80 1017.98
1011.25 1011.34 1011.57 1011.95 1012.40 1012.86 1013.26 1013.57 1013.76 1013.86 1013.92 1013.97 1014.06 1014.19 1014.36 1014.54 1014.70 1014.83 1014.91 1014.96 1015.00 1015.06 1015.17 1015.33 1015.54 1015.77 1015.99 1016.19 1016.34 1016.44 1016.51 1016.56 1016.62 1016.70 1016.80 1016.93 1017.07 1017.21 1017.35 1017.49 1017.64 1017.80 1017.99
1011.39 1011.55 1011.84 1012.25 1012.70 1013.12 1013.46 1013.69 1013.81 1013.85 1013.87 1013.91 1013.98 1014.11 1014.28 1014.45 1014.61 1014.73 1014.81 1014.86 1014.92 1015.01 1015.14 1015.32 1015.55 1015.78 1016.01 1016.20 1016.35 1016.45 1016.53 1016.59 1016.65 1016.74 1016.84 1016.95 1017.06 1017.18 1017.28 1017.40 1017.54 1017.70 1017.92
1011.56 1011.79 1012.14 1012.56 1012.98 1013.34 1013.59 1013.73 1013.78 1013.77 1013.76 1013.79 1013.88 1014.02 1014.19 1014.38 1014.53 1014.65 1014.73 1014.78 1014.85 1014.95 1015.09 1015.29 1015.51 1015.75 1015.97 1016.15 1016.29 1016.39 1016.47 1016.54 1016.61 1016.69 1016.79 1016.88 1016.97 1017.05 1017.12 1017.21 1017.33 1017.50 1017.74
1011.75 1012.06 1012.45 1012.86 1013.23 1013.50 1013.66 1013.71 1013.68 1013.64 1013.62 1013.66 1013.77 1013.95 1014.15 1014.34 1014.49 1014.60 1014.66 1014.71 1014.77 1014.86 1015.00 1015.18 1015.40 1015.62 1015.82 1015.99 1016.12 1016.22 1016.30 1016.38 1016.46 1016.55 1016.64 1016.72 1016.78 1016.83 1016.87 1016.93 1017.04 1017.21 1017.46
1011.97 1012.34 1012.75 1013.14 1013.43 1013.61 1013.67 1013.63 1013.55 1013.48 1013.47 1013.55 1013.70 1013.92 1014.14 1014.34 1014.49 1014.57 1014.61 1014.63 1014.66 1014.72 1014.84 1015.00 1015.19 1015.39 1015.56 1015.71 1015.83 1015.92 1016.01 1016.09 1016.18 1016.28 1016.37 1016.44 1016.49 1016.52 1016.54 1016.59 1016.68 1016.86 1017.12
1012.24 1012.66 1013.07 1013.40 1013.61 1013.69 1013.65 1013.54 1013.42 1013.34 1013.36 1013.48 1013.68 1013.93 1014.17 1014.37 1014.50 1014.56 1014.56 1014.54 1014.53 1014.55 1014.63 1014.75 1014.90 1015.06 1015.20 1015.32 1015.41 1015.50 1015.58 1015.67 1015.77 1015.88 1015.99 1016.06 1016.11 1016.14 1016.15 1016.19 1016.28 1016.45 1016.72
1012.58 1013.01 1013.38 1013.65 1013.76 1013.74 1013.62 1013.45 1013.30 1013.24 1013.29 1013.45 1013.69 1013.96 1014.22 1014.41 1014.51 1014.53 1014.49 1014.43 1014.38 1014.37 1014.40 1014.48 1014.58 1014.69 1014.78 1014.85 1014.90 1014.96 1015.03 1015.12 1015.23 1015.36 1015.48 1015.58 1015.64 1015.68 1015.70 1015.75 1015.84 1016.02 1016.29
1013.00 1013.40 1013.71 1013.88 1013.90 1013.79 1013.59 1013.39 1013.24 1013.19 1013.27 1013.47 1013.73 1014.01 1014.25 1014.42 1014.49 1014.48 1014.41 1014.31 1014.24 1014.19 1014.19 1014.23 1014.27 1014.31 1014.33 1014.34 1014.34 1014.35 1014.39 1014.46 1014.58 1014.72 1014.86 1014.98 1015.08 1015.15 1015.20 1015.27 1015.39 1015.58 1015.86
1013.49 1013.81 1014.03 1014.10 1014.02 1013.84 1013.60 1013.38 1013.24 1013.22 1013.32 1013.53 1013.79 1014.05 1014.26 1014.39 1014.43 1014.39 1014.30 1014.20 1014.12 1014.07 1014.04 1014.04 1014.02 1013.99 1013.93 1013.84 1013.76 1013.70 1013.69 1013.73 1013.83 1013.97 1014.14 1014.30 1014.43 1014.55 1014.65 1014.76 1014.91 1015.12 1015.41
1013.98 1014.20 1014.31 1014.28 1014.13 1013.90 1013.65 1013.44 1013.33 1013.33 1013.44 1013.64 1013.87 1014.08 1014.24 1014.32 1014.32 1014.27 1014.18 1014.10 1014.04 1014.00 1013.97 1013.93 1013.86 1013.75 1013.59 1013.40 1013.21 1013.06 1012.97 1012.96 1013.03 1013.16 1013.34 1013.53 1013.71 1013.88 1014.04 1014.20 1014.39 1014.64 1014.94
1014.41 1014.51 1014.51 1014.40 1014.21 1013.97 1013.74 1013.58 1013.50 1013.53 1013.64 1013.80 1013.97 1014.10 1014.19 1014.20 1014.17 1014.11 1014.05 1014.01 1013.99 1013.99 1013.97 1013.91 1013.79 1013.59 1013.32 1013.02 1012.72 1012.46 1012.28 1012.20 1012.22 1012.34 1012.52 1012.73 1012.94 1013.16 1013.37 1013.60 1013.84 1014.12 1014.45
1014.73 1014.72 1014.63 1014.47 1014.26 1014.06 1013.89 1013.79 1013.77 1013.82 1013.91 1014.02 1014.10 1014.14 1014.12 1014.07 1014.00 1013.94 1013.91 1013.92 1013.96 1014.00 1014.00 1013.93 1013.77 1013.49 1013.13 1012.72 1012.30 1011.94 1011.67 1011.52 1011.48 1011.56 1011.72 1011.94 1012.18 1012.43 1012.68 1012.95 1013.24 1013.56 1013.92
1014.88 1014.78 1014.64 1014.46 1014.29 1014.16 1014.08 1014.07 1014.11 1014.18 1014.25 1014.29 1014.27 1014.19 1014.06 1013.92 1013.81 1013.74 1013.75 1013.81 1013.91 1014.00 1014.03 1013.96 1013.76 1013.43 1012.98 1012.48 1011.98 1011.53 1011.18 1010.96 1010.87 1010.90 1011.03 1011.22 1011.46 1011.72 1011.99 1012.29 1012.61 1012.96 1013.34
1014.88 1014.72 1014.56 1014.41 1014.31 1014.27 1014.30 1014.39 1014.50 1014.59 1014.63 1014.59 1014.46 1014.25 1014.02 1013.79 1013.62 1013.54 1013.57 1013.68 1013.82 1013.96 1014.01 1013.95 1013.73 1013.36 1012.87 1012.32 1011.76 1011.25 1010.85 1010.57 1010.43 1010.42 1010.50 1010.65 1010.84 1011.08 1011.34 1011.63 1011.95 1012.31 1012.71
1014.76 1014.58 1014.43 1014.33 1014.31 1014.38 1014.53 1014.71 1014.88 1014.99 1015.00 1014.88 1014.65 1014.33 1013.98 1013.67 1013.44 1013.34 1013.37 1013.50 1013.67 1013.84 1013.91 1013.86 1013.64 1013.27 1012.77 1012.20 1011.64 1011.12 1010.70 1010.40 1010.22 1010.15 1010.17 1010.25 1010.38 1010.54 1010.75 1011.00 1011.30 1011.64 1012.03
1014.59 1014.42 1014.30 1014.26 1014.32 1014.49 1014.72 1014.99 1015.21 1015.33 1015.31 1015.13 1014.81 1014.39 1013.95 1013.56 1013.28 1013.14 1013.15 1013.28 1013.47 1013.64 1013.72 1013.68 1013.48 1013.13 1012.67 1012.14 1011.61 1011.13 1010.73 1010.42 1010.22 1010.10 1010.05 1010.04 1010.07 1010.14 1010.25 1010.42 1010.66 1010.96 1011.32
1014.45 1014.31 1014.22 1014.23 1014.35 1014.57 1014.86 1015.17 1015.42 1015.54 1015.50 1015.27 1014.89 1014.41 1013.91 1013.46 1013.13 1012.95 1012.94 1013.04 1013.21 1013.37 1013.46 1013.42 1013.25 1012.95 1012.55 1012.10 1011.65 1011.24 1010.90 1010.62 1010.41 1010.25 1010.11 1010.00 1009.92 1009.86 1009.85 1009.92 1010.06 1010.29 1010.60
1014.40 1014.29 1014.23 1014.25 1014.38 1014.62 1014.92 1015.23 1015.48 1015.59 1015.53 1015.28 1014.87 1014.36 1013.83 1013.36 1013.00 1012.79 1012.74 1012.80 1012.93 1013.06 1013.13 1013.11 1012.97 1012.73 1012.42 1012.07 1011.73 1011.42 1011.14 1010.91 1010.70 1010.50 1010.30 1010.09 1009.87 1009.69 1009.55 1009.49 1009.53 1009.68 1009.92
1014.47 1014.38 1014.31 1014.31 1014.41 1014.61 1014.88 1015.16 1015.37 1015.47 1015.39 1015.14 1014.74 1014.24 1013.72 1013.25 1012.89 1012.66 1012.57 1012.59 1012.66 1012.75 1012.79 1012.76 1012.66 1012.48 1012.25 1012.01 1011.78 1011.57 1011.38 1011.20 1011.00 1010.78 1010.51 1010.21 1009.89 1009.59 1009.33 1009.16 1009.09 1009.15 1009.32
1014.66 1014.57 1014.47 1014.41 1014.44 1014.56 1014.75 1014.96 1015.13 1015.19 1015.11 1014.88 1014.52 1014.07 1013.59 1013.15 1012.80 1012.56 1012.44 1012.40 1012.42 1012.44 1012.45 1012.40 1012.31 1012.18 1012.03 1011.89 1011.76 1011.64 1011.53 1011.40 1011.22 1010.98 1010.67 1010.31 1009.91 1009.52 1009.17 1008.91 1008.77 1008.75 1008.85
Thickness
5824 5825 5823 5821 5819 5818 5815 5811 5808 5805 5802 5799 5797 5794 5792 5790 5787 5785 5782 5780 5778 5775 5773 5770 5768 5765 5764 5762 5760 5759 5758 5756 5755 5754 5752 5751 5750 5749 5748 5747 5745 5744 5742
5831 5826 5822 5820 5818 5816 5813 5809 5806 5803 5800 5797 5795 5792 5790 5787 5785 5783 5781 5779 5777 5775 5772 5770 5768 5766 5764 5762 5760 5758 5757 5756 5754 5753 5752 5751 5750 5749 5748 5746 5745 5743 5741
5830 5825 5822 5819 5816 5814 5811 5808 5804 5801 5798 5795 5793 5790 5788 5786 5783 5781 5779 5778 5776 5774 5771 5769 5767 5765 5763 5762 5760 5758 5756 5755 5754 5752 5751 5750 5750 5749 5747 5746 5744 5742 5741
5829 5824 5820 5817 5815 5812 5809 5806 5803 5799 5796 5794 5791 5789 5786 5784 5782 5780 5778 5776 5774 5772 5770 5768 5766 5764 5762 5761 5759 5757 5756 5754 5753 5751 5750 5749 5749 5748 5746 5745 5744 5742 5740
5825 5821 5818 5815 5812 5810 5807 5804 5801 5798 5795 5792 5790 5787 5785 5782 5780 5778 5776 5774 5773 5771 5769 5767 5765 5763 5761 5759 5758 5757 5755 5753 5752 5751 5749 5748 5748 5747 5746 5744 5743 5741 5740
5821 5818 5815 5812 5810 5807 5804 5802 5799 5796 5793 5791 5788 5785 5783 5781 5779 5776 5774 5772 5771 5769 5767 5765 5763 5761 5759 5758 5757 5756 5755 5753 5752 5750 5750 5748 5747 5746 5745 5744 5743 5741 5739
5817 5814 5812 5809 5806 5804 5801 5799 5796 5793 5791 5788 5786 5783 5781 5778 5776 5774 5772 5770 5769 5767 5765 5763 5761 5759 5757 5755 5754 5754 5753 5752 5751 5749 5748 5747 5746 5746 5745 5743 5742 5741 5739
5815 5811 5808 5805 5803 5801 5798 5795 5793 5790 5788 5785 5783 5781 5778 5776 5774 5772 5770 5768 5766 5764 5762 5760 5758 5756 5755 5753 5752 5751 5751 5750 5750 5749 5748 5747 5746 5745 5744 5743 5742 5740 5739
5811 5808 5805 5802 5800 5797 5794 5792 5789 5787 5784 5782 5780 5778 5776 5773 5771 5769 5767 5765 5762 5760 5758 5757 5755 5753 5752 5750 5749 5748 5748 5748 5747 5746 5746 5745 5745 5744 5743 5742 5741 5740 5738
5806 5804 5801 5798 5796 5793 5790 5788 5785 5783 5781 5778 5776 5774 5772 5770 5768 5766 5764 5761 5759 5757 5756 5754 5752 5750 5748 5747 5746 5745 5744 5744 5745 5744 5743 5743 5743 5743 5743 5742 5741 5739 5738
5800 5798 5796 5794 5792 5789 5786 5784 5781 5779 5777 5775 5773 5771 5769 5767 5765 5763 5761 5758 5757 5755 5753 5751 5750 5748 5745 5744 5742 5741 5741 5741 5741 5742 5742 5741 5741 5742 5742 5741 5740 5739 5738
5792 5792 5791 5789 5787 5784 5782 5779 5777 5775 5773 5771 5769 5767 5765 5763 5761 5759 5757 5755 5754 5752 5750 5749 5747 5744 5742 5740 5739 5738 5737 5737 5737 5739 5740 5740 5740 5740 5740 5740 5739 5738 5738
5789 5787 5786 5784 5783 5780 5778 5775 5772 5770 5769 5767 5765 5763 5761 5758 5756 5754 5752 5751 5750 5749 5747 5745 5743 5741 5739 5737 5735 5735 5734 5733 5734 5735 5738 5739 5739 5739 5739 5738 5738 5737 5737
5782 5781 5781 5779 5777 5775 5772 5769 5767 5765 5764 5762 5761 5758 5756 5753 5751 5749 5747 5746 5746 5746 5744 5742 5740 5738 5736 5733 5732 5732 5731 5730 5731 5732 5734 5736 5737 5738 5738 5737 5736 5736 5736
5774 5773 5773 5773 5770 5768 5765 5763 5761 5759 5758 5756 5755 5753 5751 5748 5746 5744 5741 5741 5741 5740 5739 5738 5736 5734 5732 5730 5728 5728 5729 5729 5728 5729 5731 5733 5736 5736 5736 5736 5735 5735 5734
5766 5765 5765 5764 5762 5761 5758 5755 5753 5752 5750 5749 5748 5746 5744 5742 5739 5737 5736 5734 5734 5733 5733 5732 5731 5730 5729 5727 5726 5726 5726 5726 5726 5726 5728 5730 5733 5734 5735 5735 5734 5733 5733
5759 5758 5756 5755 5754 5753 5749 5747 5745 5743 5742 5740 5738 5737 5735 5734 5732 5730 5728 5727 5726 5726 5725 5725 5725 5725 5724 5724 5724 5724 5724 5725 5725 5724 5725 5727 5730 5732 5733 5733 5733 5732 5732
5753 5751 5750 5750 5746 5744 5742 5740 5737 5735 5733 5731 5730 5728 5727 5725 5724 5722 5720 5719 5719 5718 5718 5717 5717 5717 5718 5719 5719 5720 5721 5722 5722 5722 5721 5724 5726 5728 5730 5732 5732 5732 5731
5746 5744 5742 5741 5739 5736 5734 5731 5729 5727 5724 5722 5721 5719 5718 5716 5715 5713 5711 5710 5711 5710 5710 5710 5710 5710 5711 5713 5714 5716 5717 5718 5718 5719 5719 5721 5723 5724 5727 5730 5731 5731 5731
5740 5738 5735 5733 5730 5727 5725 5722 5720 5717 5714 5713 5711 5710 5708 5707 5705 5704 5703 5702 5701 5701 5700 5701 5702 5704 5705 5706 5709 5712 5714 5715 5715 5716 5717 5719 5721 5723 5724 5727 5728 5729 5730
5734 5732 5729 5726 5723 5719 5715 5711 5707 5704 5703 5702 5701 5700 5698 5697 5696 5695 5694 5692 5691 5690 5691 5692 5693 5695 5697 5699 5699 5702 5707 5710 5712 5714 5715 5716 5719 5721 5723 5725 5727 5727 5730
5729 5726 5723 5720 5717 5713 5709 5704 5700 5697 5694 5692 5690 5689 5688 5687 5686 5686 5685 5683 5682 5682 5682 5682 5683 5684 5687 5690 5690 5690 5693 5699 5706 5711 5713 5714 5717 5720 5721 5724 5725 5727 5729
5726 5723 5721 5716 5712 5708 5703 5698 5693 5689 5685 5682 5680 5679 5679 5678 5677 5676 5676 5675 5675 5674 5673 5673 5674 5675 5676 5680 5682 5682 5683 5686 5695 5703 5708 5712 5715 5717 5720 5722 5724 5726 5728
5724 5722 5717 5711 5706 5701 5696 5690 5684 5678 5673 5671 5670 5669 5669 5668 5668 5668 5668 5668 5667 5666 5665 5665 5666 5666 5667 5668 5672 5676 5679 5682 5682 5689 5700 5706 5711 5713 5717 5720 5723 5725 5727
5722 5716 5710 5705 5699 5693 5688 5683 5677 5671 5667 5665 5662 5660 5659 5659 5658 5658 5658 5658 5657 5657 5656 5657 5657 5657 5658 5659 5662 5665 5669 5674 5677 5679 5685 5694 5702 5709 5714 5717 5720 5723 5726
5714 5709 5702 5696 5690 5685 5680 5675 5670 5665 5660 5656 5653 5651 5649 5648 5648 5648 5648 5648 5648 5647 5647 5648 5648 5649 5650 5652 5654 5656 5659 5663 5668 5672 5677 5683 5690 5700 5708 5713 5717 5721 5724